Regional Weather Roundup
Issued by NWS Sioux Falls, SD

Home | Current Version | Previous Version | Graphics & Text | Print | Product List | Glossary Off
Versions: 1 2 3 4 5 6 7 8 9 10 11 12 13 14 15 16 17 18 19 20 21 22 23 24 25 26 27 28 29 30 31 32 33 34 35 36 37 38 39 40 41 42 43 44 45 46 47 48 49 50

000
ASUS43 KFSD 230610
RWRFSD

WEATHER ROUNDUP FOR SE SOUTH DAKOTA/SW MINNESOTA/NW IOWA
NATIONAL WEATHER SERVICE SIOUX FALLS SD
100 AM CDT WED AUG 23 2017

NOTE: "FAIR" INDICATES FEW OR NO CLOUDS BELOW 12,000 FEET WITH NO
SIGNIFICANT WEATHER AND OR OBSTRUCTIONS TO VISIBILITY.


SDZ038>040-050-052>070-230700-
SOUTHEAST SOUTH DAKOTA

CITY           SKY/WX    TMP DP  RH WIND       PRES   REMARKS
BROOKINGS      CLEAR     56  52  86 E3        30.15F
CHAMBERLAIN    CLEAR     59  53  80 E6        30.14F
6HR MIN TEMP:  58; 6HR MAX TEMP:  77;

HURON          CLEAR     54  53  97 CALM      30.14S
6HR MIN TEMP:  53; 6HR MAX TEMP:  75;

MADISON        FAIR      54  54 100 CALM      30.16F
MITCHELL       CLEAR     55  51  86 VRB3      30.15S
6HR MIN TEMP:  55; 6HR MAX TEMP:  76;

SIOUX FALLS    CLEAR     56  54  93 CALM      30.15F
6HR MIN TEMP:  55; 6HR MAX TEMP:  73;

WINNER         FAIR      61  54  77 SE9       30.13F
YANKTON        CLEAR     59  56  89 CALM      30.16S
$$

MNZ071-072-080-081-089-090-097-098-230700-
SOUTHWEST MINNESOTA

CITY           SKY/WX    TMP DP  RH WIND       PRES   REMARKS
FAIRMONT       CLEAR     54  51  90 W3        30.13S
JACKSON        CLEAR     54  50  87 CALM      30.15S
LUVERNE        CLEAR     52  48  87 CALM      30.16F
MARSHALL       CLEAR     54  50  86 W3        30.13F
6HR MIN TEMP:  53; 6HR MAX TEMP:  69;

MONTEVIDEO     CLEAR     55  48  76 W6        30.12S
PIPESTONE      CLEAR     57  48  72 CALM      30.15F
REDWOOD FALLS  CLEAR     57  50  77 W8        30.11S
TRACY          CLEAR     56  52  86 SW8       30.14S
WINDOM         CLEAR     54  50  87 SW3       30.14S
WORTHINGTON    CLEAR     52  49  89 SW6       30.16S
$$

IAZ001>003-012>014-020>022-031-032-NEZ013-014-SDZ071-230700-
NORTHWEST IOWA

CITY           SKY/WX    TMP DP  RH WIND       PRES   REMARKS
CHEROKEE       CLEAR     52  52 100 CALM      30.16S
DENISON        CLEAR     54  54 100 CALM      30.18S
ESTHERVILLE    CLEAR     53  51  93 W7        30.14S
ORANGE CITY    CLEAR     57  54  88 CALM      30.17S
SHELDON        CLEAR     48  48 100 CALM      30.15S
SIOUX CITY     CLEAR     57  55  93 CALM      30.16S
6HR MIN TEMP:  56; 6HR MAX TEMP:  72;

SPENCER        CLEAR     50  49  96 W6        30.16R
6HR MIN TEMP:  50; 6HR MAX TEMP:  71;

STORM LAKE     CLEAR     55  52  88 W9        30.17R
$$

ABBREVIATIONS USED IN REMARKS
   TC - TEMPERATURE IN CELSIUS
  WCI - WIND CHILL INDEX
   HX - HEAT INDEX
  VSB - VISIBILITY





USA.gov is the U.S. government's official web portal to all federal, state and local government web resources and services.